Regional Weather Roundup
Issued by NWS

Home | Current Version | Previous Version | Text Only | Print | Product List | Glossary On
Versions: 1 2 3 4 5 6 7 8 9 10 11 12 13 14 15 16 17 18 19 20 21 22 23 24 25 26 27 28 29 30 31 32 33 34 35 36 37 38 39 40 41 42 43 44 45 46 47 48 49 50
000
ASUS43 KLMK 271810
RWRKY
KENTUCKY REGIONAL WEATHER ROUNDUP
NATIONAL WEATHER SERVICE LOUISVILLE KY
100 PM EST THU NOV 27 2014

NOTE "FAIR" INDICATES FEW OR NO CLOUDS BELOW 12,000 FEET
WITH NO SIGNIFICANT WEATHER AND/OR OBSTRUCTIONS TO VISIBILITY.

KYZ001>023-026-027-061>063-070>075-271900-
WESTERN AND SOUTH CENTRAL KENTUCKY

CITY           SKY/WX    TMP DP  RH WIND       PRES   REMARKS
PADUCAH        CLOUDY    32  23  69 NW8       30.48F WCI  25
HENDERSON      PTSUNNY   32  25  74 NW16      30.44F WCI  21
OWENSBORO      CLOUDY    31  25  78 NW12G18   30.44F WCI  22
HOPKINSVILLE   CLOUDY    33  24  69 NW13G21   30.44F WCI  24
BOWLING GREEN  CLOUDY    31  22  69 NW14G21   30.42S WCI  21
GLASGOW        CLOUDY    32  25  77 NW10      30.38S WCI  23
$$

KYZ024-025-028>034-038-045-046-053-271900-
NORTH CENTRAL KENTUCKY

CITY           SKY/WX    TMP DP  RH WIND       PRES   REMARKS
LOUISVILLE/SDF CLOUDY    34  25  69 W13       30.36S WCI  25
LOUISVILLE/LOU CLOUDY    33  23  66 NW10      30.36S WCI  25
FORT KNOX      CLOUDY    30  24  78 NW14      30.35S WCI  19
$$

KYZ035>037-039>044-047>052-055>060-089>105-271900-
NORTHEAST KENTUCKY

CITY           SKY/WX    TMP DP  RH WIND       PRES   REMARKS
LEXINGTON      CLOUDY    32  22  66 NW10      30.30S WCI  24
COVINGTON      FLURRIES  33  19  56 W14G28    30.27F WCI  23
FRANKFORT      CLOUDY    33  21  61 W9        30.31R WCI  25
$$

KYZ054-064>069-076>088-106>120-271900-
SOUTHEAST KENTUCKY

CITY           SKY/WX    TMP DP  RH WIND       PRES   REMARKS
JACKSON        CLOUDY    31  22  69 NW8       30.24S WCI  23
LONDON         CLOUDY    32  26  78 NW13      30.27F WCI  22
SOMERSET       CLOUDY    32  27  80 NW9       30.32S WCI  24
MIDDLESBORO    NOT AVBL
MONTICELLO     CLOUDY    34  28  79 NW12      30.35R WCI  25
$$



USA.gov is the U.S. government's official web portal to all federal, state and local government web resources and services.